Simultaneous Nadir Overpasses (SNOs) Predictions

Prediction of SNOs between AQUA and NPP Satellite Orbit:

Table of predicted SNOs for the next 14.0 days since TLE Epoch: 8/2/2013
Index Date (AQUA) Time (AQUA) Lat,Lon (AQUA) SZA (AQUA ) Date (NPP) Time (NPP) Lat,Lon (NPP) SZA (NPP ) Distance(km) Time Diff (sec)
1 08/04/2013 06:22:16 -75.05, 140.82 98.20 08/04/2013 06:21:52 -75.04, 140.75 98.16 2.09 24
2 08/04/2013 07:11:18 76.22, -48.15 80.46 08/04/2013 07:12:11 76.21, -48.17 80.42 0.70 53
3 08/06/2013 21:49:37 74.04, 86.58 83.64 08/06/2013 21:48:25 74.03, 86.50 83.72 2.84 72
4 08/06/2013 22:38:32 -75.69,-101.53 98.23 08/06/2013 22:38:36 -75.69,-101.48 98.25 1.43 4
5 08/09/2013 14:05:48 74.98,-155.25 83.30 08/09/2013 14:05:04 74.99,-155.17 83.32 2.46 44
6 08/09/2013
